Location: Unspecified
(42.0334°N, 93.6656°W)
Time: 18:55:55
(UTC-05:00)

Amateur Radio Satellites - All Passes

Search period start: 24 April 2014 18:25
Search period end: 25 April 2014 18:25
Location: Unspecified, 42.0334°N, 93.6656°W

Satellite Date Start Highest point End Downlink Frequencies (MHz)
Time Altitude Azimuth
AO-7 24 Apr 18:26:06 18:32:25 24° 267° (W) 18:38:48 29.400 - 29.500 MHz
ISS 24 Apr 18:48:37 18:51:29 25° 20° (NNE) 18:54:21 145.800 FM
Hamsat 24 Apr 19:13:20 19:17:17 39° 262° (W) 19:21:19 145.90 MHz
STRAND 1 24 Apr 19:14:12 19:18:33 28° 95° (E) 19:22:52 ?
Saudisat 1A 24 Apr 19:22:37 19:26:59 61° 240° (WSW) 19:31:17 436.775 MHz
SO-67 24 Apr 19:58:39 20:02:06 58° 260° (W) 20:05:34 435.3500 MHz FM
JAS-2 24 Apr 20:07:08 20:12:29 44° 261° (W) 20:17:30 435.800 - 435.900 CW/SSB, 435.910 FM
ISS 24 Apr 20:25:05 20:28:27 66° 218° (SW) 20:31:49 145.800 FM
HO-68 24 Apr 20:30:53 20:37:14 37° 62° (ENE) 20:43:37 435.675 MHz FM
STRAND 1 24 Apr 20:53:09 20:57:47 36° 292° (WNW) 21:02:23 ?
Oscar 11 24 Apr 21:08:48 21:11:43 18° 65° (ENE) 21:14:38 145.825 FM, Beacon 2401.500 USB
MaSat-1 24 Apr 21:33:22 21:35:39 24° 300° (WNW) 21:37:48 437.345 MHz
SO-50 24 Apr 21:35:42 21:37:32 12° 34° (NE) 21:39:23 436.795 FM
HO-68 24 Apr 22:17:59 22:24:46 46° 261° (W) 22:31:36 435.675 MHz FM
Sapphire 24 Apr 22:35:41 22:38:16 14° 103° (ESE) 22:40:52 437.095 MHz 1200 baud AX-25 AFSK
Oscar 11 24 Apr 22:43:28 22:47:34 43° 261° (W) 22:51:43 145.825 FM, Beacon 2401.500 USB
FUNcube-1 24 Apr 22:50:48 22:54:56 70° 75° (ENE) 22:59:05 145.950 - 145.970 MHz USB
SO-50 24 Apr 23:14:24 23:19:01 63° 54° (NE) 23:23:42 436.795 FM
PCSat 24 Apr 23:17:16 23:22:08 35° 111° (ESE) 23:27:01 145.825 MHz
UOSAT-12 24 Apr 23:26:50 23:27:17 10° 30° (NNE) 23:27:45 437.025 FM, 437.400 FM
Sapphire 25 Apr 00:15:32 00:20:56 82° 300° (WNW) 00:26:24 437.095 MHz 1200 baud AX-25 AFSK
KITSAT 1 25 Apr 00:50:14 00:55:37 20° 102° (ESE) 01:01:00 435.175 FM
SO-50 25 Apr 00:56:20 00:59:07 16° 251° (WSW) 01:01:54 436.795 FM
PCSat 25 Apr 01:00:34 01:05:31 36° 309° (NW) 01:10:30 145.825 MHz
UOSAT-12 25 Apr 01:04:02 01:08:37 47° 51° (NE) 01:13:09 437.025 FM, 437.400 FM
Sapphire 25 Apr 02:01:59 02:05:14 16° 320° (NW) 02:08:31 437.095 MHz 1200 baud AX-25 AFSK
OPAL 25 Apr 02:04:19 02:08:25 25° 62° (ENE) 02:12:34 ?
Oscar 19 25 Apr 02:06:20 02:10:39 26° 94° (E) 02:14:55 437.125 CW, 437.150 USB
AO-27 25 Apr 02:07:29 02:10:00 14° 90° (E) 02:12:30 436.795 MHz FM
Oscar 16 25 Apr 02:15:25 02:20:08 33° 97° (E) 02:24:48 437.025 USB, Beacon 2401.1428
ITAMSAT 1 25 Apr 02:16:01 02:19:12 16° 91° (E) 02:22:23 435.822 SSB
KITSAT 1 25 Apr 02:41:50 02:49:58 88° 301° (WNW) 02:58:09 435.175 FM
UOSAT-12 25 Apr 02:44:53 02:48:28 22° 249° (WSW) 02:52:01 437.025 FM, 437.400 FM
AO-Echo 25 Apr 02:59:46 03:04:01 32° 97° (E) 03:08:13 ?
Uribyol 2 25 Apr 03:01:31 03:06:31 46° 99° (E) 03:11:30 436.500 FM
TMSAT-1 25 Apr 03:17:51 03:20:40 14° 90° (E) 03:23:29 436.925 FM
JAS-1B 25 Apr 03:41:07 03:43:29 13° 90° (E) 03:45:55 435.800 - 435.900 CW/SSB
OPAL 25 Apr 03:42:16 03:47:03 42° 259° (W) 03:51:55 ?
AO-27 25 Apr 03:44:52 03:50:03 74° 286° (WNW) 03:55:13 436.795 MHz FM
Oscar 19 25 Apr 03:45:15 03:50:05 40° 291° (WNW) 03:54:53 437.125 CW, 437.150 USB
ITAMSAT 1 25 Apr 03:54:00 03:59:07 62° 288° (WNW) 04:04:13 435.822 SSB
Oscar 16 25 Apr 03:54:52 03:59:24 31° 293° (WNW) 04:03:55 437.025 USB, Beacon 2401.1428
Gurwin Techsat 1B 25 Apr 04:11:34 04:16:51 65° 102° (ESE) 04:22:07 435.225 FM
AO-7 25 Apr 04:32:53 04:39:10 23° 93° (E) 04:45:25 29.400 - 29.500 MHz
AO-Echo 25 Apr 04:38:46 04:42:41 26° 294° (WNW) 04:46:34 ?
KITSAT 1 25 Apr 04:39:59 04:46:31 26° 324° (NW) 04:53:05 435.175 FM
Uribyol 2 25 Apr 04:41:41 04:45:41 23° 296° (WNW) 04:49:42 436.500 FM
TMSAT-1 25 Apr 04:55:50 05:01:07 71° 286° (WNW) 05:06:22 436.925 FM
Uosat F 25 Apr 05:01:50 05:06:40 47° 100° (E) 05:11:28 435.120 FM
AO-27 25 Apr 05:28:15 05:28:39 10° 304° (NW) 05:29:03 436.795 MHz FM
JAS-1B 25 Apr 05:29:07 05:34:49 81° 286° (WNW) 05:40:58 435.800 - 435.900 CW/SSB
Gurwin Techsat 1B 25 Apr 05:52:49 05:56:17 18° 299° (WNW) 05:59:45 435.225 FM
RS-15 25 Apr 05:54:27 06:05:10 51° 111° (ESE) 06:15:32 29.354 - 29.394 USB, Beacon 29.352 USB
MaSat-1 25 Apr 05:54:34 05:57:34 46° 62° (ENE) 06:01:06 437.345 MHz
AO-7 25 Apr 06:24:23 06:32:42 77° 291° (WNW) 06:41:01 29.400 - 29.500 MHz
STRAND 1 25 Apr 06:30:28 06:35:15 42° 69° (ENE) 06:40:03 ?
Uosat F 25 Apr 06:41:24 06:45:07 21° 297° (WNW) 06:48:51 435.120 FM
KITSAT 1 25 Apr 06:42:29 06:45:28 12° 353° (N) 06:48:27 435.175 FM
Hamsat 25 Apr 06:58:40 07:02:40 34° 97° (E) 07:06:38 145.90 MHz
JAS-2 25 Apr 07:14:45 07:18:57 21° 94° (E) 07:23:28 435.800 - 435.900 CW/SSB, 435.910 FM
Sapphire 25 Apr 07:20:59 07:24:24 17° 40° (NE) 07:27:48 437.095 MHz 1200 baud AX-25 AFSK
JAS-1B 25 Apr 07:23:04 07:24:39 11° 305° (NW) 07:26:16 435.800 - 435.900 CW/SSB
AO-40 25 Apr 07:36:28 08:50:15 13° 121° (ESE) 09:40:28 Beacon 2401.320
PCSat 25 Apr 08:04:27 08:09:22 33° 50° (NE) 08:14:14 145.825 MHz
RS-15 25 Apr 08:06:39 08:17:31 52° 314° (NW) 08:28:09 29.354 - 29.394 USB, Beacon 29.352 USB
STRAND 1 25 Apr 08:10:34 08:14:36 23° 266° (W) 08:18:39 ?
AO-7 25 Apr 08:18:55 08:24:12 19° 311° (NW) 08:29:30 29.400 - 29.500 MHz
PANSAT 25 Apr 08:28:26 08:29:22 11° 184° (S) 08:30:17 not established
Hamsat 25 Apr 08:35:03 08:38:27 22° 293° (WNW) 08:41:50 145.90 MHz
KITSAT 1 25 Apr 08:40:03 08:45:03 17° 24° (NNE) 08:50:02 435.175 FM
SO-67 25 Apr 08:55:50 08:59:14 49° 286° (WNW) 09:02:36 435.3500 MHz FM
JAS-2 25 Apr 08:58:52 09:04:18 57° 288° (WNW) 09:10:22 435.800 - 435.900 CW/SSB, 435.910 FM
Sapphire 25 Apr 09:03:11 09:08:39 86° 61° (ENE) 09:14:03 437.095 MHz 1200 baud AX-25 AFSK
Saudisat 1A 25 Apr 09:29:47 09:33:43 31° 115° (ESE) 09:37:40 436.775 MHz
HO-68 25 Apr 09:45:01 09:51:29 35° 97° (E) 09:57:54 435.675 MHz FM
PCSat 25 Apr 09:47:49 09:52:49 38° 249° (WSW) 09:57:46 145.825 MHz
RS-15 25 Apr 10:24:57 10:33:15 23° 346° (NNW) 10:41:30 29.354 - 29.394 USB, Beacon 29.352 USB
Oscar 11 25 Apr 10:30:47 10:34:42 32° 97° (E) 10:38:36 145.825 FM, Beacon 2401.500 USB
KITSAT 1 25 Apr 10:34:50 10:42:41 50° 50° (NE) 10:50:28 435.175 FM
FUNcube-1 25 Apr 10:41:04 10:43:13 13° 91° (E) 10:45:22 145.950 - 145.970 MHz USB
Sapphire 25 Apr 10:49:01 10:51:16 13° 258° (WSW) 10:53:32 437.095 MHz 1200 baud AX-25 AFSK
Saudisat 1A 25 Apr 11:09:17 11:13:17 31° 312° (NW) 11:17:18 436.775 MHz
HO-68 25 Apr 11:32:30 11:39:17 47° 295° (WNW) 11:46:04 435.675 MHz FM
Oscar 11 25 Apr 12:07:14 12:10:44 24° 293° (WNW) 12:14:14 145.825 FM, Beacon 2401.500 USB
FUNcube-1 25 Apr 12:15:43 12:19:56 56° 286° (WNW) 12:24:15 145.950 - 145.970 MHz USB
KITSAT 1 25 Apr 12:30:32 12:37:56 41° 250° (WSW) 12:45:16 435.175 FM
RS-15 25 Apr 12:41:57 12:50:44 26° 22° (NNE) 12:59:32 29.354 - 29.394 USB, Beacon 29.352 USB
ISS 25 Apr 13:07:48 13:10:47 31° 137° (SE) 13:13:47 145.800 FM
Oscar 19 25 Apr 13:23:31 13:28:16 39° 69° (ENE) 13:33:03 437.125 CW, 437.150 USB
AO-27 25 Apr 13:25:33 13:29:33 23° 64° (ENE) 13:33:34 436.795 MHz FM
SO-50 25 Apr 13:31:30 13:34:28 18° 110° (ESE) 13:37:27 436.795 FM
Oscar 16 25 Apr 13:32:44 13:37:41 51° 71° (ENE) 13:42:41 437.025 USB, Beacon 2401.1428
ITAMSAT 1 25 Apr 13:34:10 13:38:27 27° 65° (ENE) 13:42:44 435.822 SSB
Gurwin Techsat 1B 25 Apr 13:56:19 13:59:09 15° 59° (ENE) 14:02:00 435.225 FM
AO-Echo 25 Apr 14:12:41 14:17:37 47° 71° (ENE) 14:22:26 ?
Uribyol 2 25 Apr 14:19:49 14:24:57 73° 74° (ENE) 14:30:07 436.500 FM
JAS-1B 25 Apr 14:27:23 14:31:25 16° 59° (ENE) 14:35:08 435.800 - 435.900 CW/SSB
TMSAT-1 25 Apr 14:38:35 14:42:47 25° 64° (ENE) 14:47:01 436.925 FM
ISS 25 Apr 14:44:21 14:47:27 36° 334° (NNW) 14:50:36 145.800 FM
RS-15 25 Apr 14:54:47 15:05:41 66° 51° (NE) 15:16:49 29.354 - 29.394 USB, Beacon 29.352 USB
Oscar 19 25 Apr 15:03:26 15:07:42 26° 266° (W) 15:12:00 437.125 CW, 437.150 USB
AO-27 25 Apr 15:03:48 15:08:46 46° 261° (W) 15:13:46 436.795 MHz FM
SO-50 25 Apr 15:10:15 15:14:37 52° 308° (NW) 15:19:03 436.795 FM
ITAMSAT 1 25 Apr 15:12:57 15:17:45 39° 262° (W) 15:22:36 435.822 SSB
Oscar 16 25 Apr 15:13:37 15:17:19 20° 268° (W) 15:21:04 437.025 USB, Beacon 2401.1428
UOSAT-12 25 Apr 15:18:45 15:20:23 12° 107° (ESE) 15:22:02 437.025 FM, 437.400 FM
AO-7 25 Apr 15:32:19 15:39:32 35° 58° (ENE) 15:46:45 29.400 - 29.500 MHz
Gurwin Techsat 1B 25 Apr 15:33:08 15:38:26 80° 257° (WSW) 15:43:47 435.225 FM
OPAL 25 Apr 15:51:24 15:56:28 49° 102° (ESE) 16:01:29 ?
AO-Echo 25 Apr 15:52:44 15:56:35 21° 267° (W) 16:00:22 ?
Uribyol 2 25 Apr 16:02:29 16:04:58 14° 270° (W) 16:07:28 436.500 FM
JAS-1B 25 Apr 16:13:46 16:21:27 89° 75° (ENE) 16:27:53 435.800 - 435.900 CW/SSB
Uosat F 25 Apr 16:15:26 16:20:25 69° 73° (ENE) 16:25:25 435.120 FM
TMSAT-1 25 Apr 16:17:25 16:22:26 44° 261° (W) 16:27:30 436.925 FM
ISS 25 Apr 16:22:39 16:24:53 16° 354° (N) 16:27:08 145.800 FM
UOSAT-12 25 Apr 16:55:17 16:59:51 79° 304° (NW) 17:04:32 437.025 FM, 437.400 FM
SO-50 25 Apr 16:55:45 16:56:15 10° 329° (NNW) 16:56:46 436.795 FM
RS-15 25 Apr 17:07:48 17:17:22 37° 253° (WSW) 17:27:12 29.354 - 29.394 USB, Beacon 29.352 USB
AO-7 25 Apr 17:23:52 17:31:56 57° 257° (WSW) 17:40:05 29.400 - 29.500 MHz
OPAL 25 Apr 17:30:58 17:35:01 23° 299° (WNW) 17:39:03 ?
Hamsat 25 Apr 17:52:55 17:56:26 26° 68° (ENE) 18:00:00 145.90 MHz
Saudisat 1A 25 Apr 17:56:00 17:59:56 30° 47° (NE) 18:03:49 436.775 MHz
Uosat F 25 Apr 17:57:11 17:59:41 14° 270° (W) 18:02:12 435.120 FM
ISS 25 Apr 17:59:57 18:02:32 20° 14° (NNE) 18:05:07 145.800 FM
JAS-1B 25 Apr 18:08:40 18:12:34 15° 269° (W) 18:16:13 435.800 - 435.900 CW/SSB
